EW7414 Weather Reports


time (UTC)temp
C
wind
direction
speed
KPH
gust
KPH
rain 1hr
cm
rain 24hr
cm
rain mn
cm
humidity
%
barometer
mb
20260505182827 25 272 8.0 24.1 0.00 0.15 0.15 38 1007.0
20260505182313 25 228 4.8 27.4 0.00 0.15 0.15 39 1007.2
20260505181825 25 231 1.6 27.4 0.00 0.15 0.15 38 1007.3
20260505181326 25 242 6.4 27.4 0.00 0.15 0.15 37 1007.5
20260505180831 25 291 6.4 30.6 0.00 0.15 0.15 38 1007.1
20260505180313 25 148 8.0 30.6 0.00 0.15 0.15 39 1007.4
20260505175838 25 282 3.2 25.7 0.00 0.15 0.15 38 1007.5
20260505175322 25 261 6.4 27.4 0.00 0.15 0.15 41 1007.5
20260505174827 25 201 6.4 27.4 0.00 0.15 0.15 38 1007.7
20260505174330 25 228 1.6 25.7 0.00 0.15 0.15 40 1007.8
20260505173812 25 214 4.8 25.7 0.00 0.15 0.15 40 1007.8
20260505173318 25 215 1.6 19.3 0.00 0.15 0.15 41 1007.8
20260505172821 25 209 4.8 24.1 0.00 0.15 0.15 43 1007.8
20260505172324 25 210 8.0 24.1 0.00 0.15 0.15 43 1007.8
20260505171829 24 224 1.6 24.1 0.00 0.15 0.15 43 1007.6
20260505171331 24 250 6.4 24.1 0.00 0.15 0.15 45 1007.9
20260505170821 25 221 6.4 22.5 0.00 0.15 0.15 42 1007.9
20260505170326 25 279 0.0 22.5 0.00 0.15 0.15 42 1007.8
20260505165851 24 193 4.8 22.5 0.00 0.15 0.15 46 1008.0
20260505165331 24 264 3.2 30.6 0.00 0.15 0.15 44 1008.0
20260505164816 23 283 3.2 30.6 0.00 0.15 0.15 43 1008.1
20260505164321 23 218 4.8 24.1 0.00 0.15 0.15 44 1008.1
20260505163826 23 222 3.2 22.5 0.00 0.15 0.15 45 1008.1
20260505163328 23 245 3.2 22.5 0.00 0.15 0.15 46 1008.2
20260505162831 23 290 1.6 17.7 0.00 0.15 0.15 45 1008.2
20260505162314 23 317 1.6 17.7 0.00 0.15 0.15 44 1008.3
20260505161840 23 224 1.6 17.7 0.00 0.15 0.15 44 1008.4
20260505161323 24 222 1.6 16.1 0.00 0.15 0.15 45 1008.5
20260505160828 24 195 1.6 22.5 0.00 0.15 0.15 47 1008.3
20260505160335 23 306 1.6 22.5 0.00 0.15 0.15 46 1008.5
20260505153325 22 243 3.2 22.5 0.00 0.15 0.15 49 1009.1
20260505152828 22 233 3.2 24.1 0.00 0.15 0.15 49 1009.1
20260505152332 22 326 3.2 32.2 0.00 0.15 0.15 49 1009.1
20260505151817 22 229 11.3 32.2 0.00 0.15 0.15 49 1009.0
20260505151321 22 229 6.4 24.1 0.00 0.15 0.15 49 1009.0
20260505150825 22 136 0.0 17.7 0.00 0.15 0.15 50 1008.9
20260505150314 22 264 1.6 16.1 0.00 0.15 0.15 49 1008.8
20260505140324 21 269 6.4 24.1 0.00 0.15 0.15 54 1008.7
20260505124826 18 234 1.6 12.9 0.00 0.15 0.15 65 1009.0
20260505124330 18 239 6.4 11.3 0.00 0.15 0.15 65 1009.0
20260505123814 18 252 0.0 17.7 0.00 0.15 0.15 66 1009.0
20260505123322 18 235 0.0 17.7 0.00 0.15 0.15 67 1009.1
20260505122827 17 127 3.2 17.7 0.00 0.15 0.15 68 1009.1
20260505122330 17 229 6.4 17.7 0.00 0.15 0.15 68 1009.2
20260505121815 17 232 0.0 12.9 0.00 0.15 0.15 68 1009.2
20260505121317 17 244 3.2 12.9 0.00 0.15 0.15 69 1009.2
20260505120823 16 214 4.8 16.1 0.00 0.15 0.15 71 1009.1
20260505120329 16 239 6.4 16.1 0.00 0.15 0.15 71 1009.3
20260505115817 16 262 4.8 17.7 0.03 0.15 0.15 72 1009.3
20260505115323 16 324 4.8 16.1 0.10 0.15 0.15 73 1009.2
20260505114828 15 219 6.4 19.3 0.15 0.15 0.15 73 1009.3
20260505114313 15 212 11.3 19.3 0.15 0.15 0.15 74 1009.2
20260505113817 15 223 6.4 12.9 0.15 0.15 0.15 75 1009.2
20260505113322 15 225 6.4 14.5 0.15 0.15 0.15 76 1009.2
20260505112825 15 202 6.4 14.5 0.15 0.15 0.15 76 1009.0
20260505112328 15 223 8.0 16.1 0.15 0.15 0.15 76 1008.8
20260505111834 15 179 9.7 17.7 0.15 0.15 0.15 77 1008.9
20260505111319 15 223 8.0 16.1 0.15 0.15 0.15 77 1008.8
20260505110822 15 150 8.0 17.7 0.15 0.15 0.15 77 1008.9
20260505110328 15 221 8.0 19.3 0.15 0.15 0.15 77 1008.8